When you browse on this site, cookies collect data to enhance your experience and personalize the content and advertising you see.
Visit our Privacy Policy to learn more. By continuing to use the site, you agree to this use of cookies and data.

Stündliche Wetter Rosocha

Heute, 15 August, Samstag

Zeit Temperatur Niederschläge Wind Luftdruck Luftfeuchtigkeit
00:00 +17°C° 0 mm 2 m/S 750 mmHg 79%
01:00 +16°C° 0 mm 2 m/S 750 mmHg 78%
02:00 +16°C° 0 mm 2 m/S 750 mmHg 79%
03:00 +16°C° 0 mm 2 m/S 750 mmHg 81%
04:00 +15°C° 0 mm 2 m/S 750 mmHg 82%
05:00 +17°C° 0 mm 2 m/S 750 mmHg 78%
06:00 +18°C° 0 mm 2 m/S 750 mmHg 74%
07:00 +20°C° 0 mm 2 m/S 751 mmHg 69%
08:00 +23°C° 0 mm 2 m/S 751 mmHg 63%
09:00 +24°C° 0 mm 2 m/S 751 mmHg 58%
10:00 +26°C° 0 mm 3 m/S 751 mmHg 52%
11:00 +27°C° 0 mm 2 m/S 751 mmHg 49%
12:00 +27°C° 0 mm 2 m/S 751 mmHg 46%
13:00 +28°C° 0 mm 2 m/S 751 mmHg 44%
14:00 +27°C° 0 mm 1 m/S 751 mmHg 45%
15:00 +27°C° 0 mm 1 m/S 750 mmHg 45%
16:00 +27°C° 0 mm 1 m/S 750 mmHg 45%
17:00 +25°C° 0 mm 1 m/S 750 mmHg 51%
18:00 +23°C° 0 mm 1 m/S 750 mmHg 57%
19:00 +22°C° 0 mm 1 m/S 750 mmHg 62%
20:00 +21°C° 0 mm 1 m/S 751 mmHg 64%
21:00 +20°C° 0 mm 1 m/S 751 mmHg 66%
22:00 +19°C° 0 mm 1 m/S 751 mmHg 68%
23:00 +19°C° 0 mm 1 m/S 751 mmHg 70%

Morgen, 16 August, Sonntag

Zeit Temperatur Niederschläge Wind Luftdruck Luftfeuchtigkeit
00:00 +18°C° 0 mm 1 m/S 751 mmHg 72%
01:00 +16°C° 0 mm 1 m/S 751 mmHg 75%
02:00 +16°C° 0 mm 1 m/S 751 mmHg 75%
03:00 +16°C° 0 mm 1 m/S 751 mmHg 76%
04:00 +14°C° 0 mm 0 m/S 751 mmHg 77%
05:00 +18°C° 0 mm 1 m/S 751 mmHg 72%
06:00 +20°C° 0 mm 1 m/S 751 mmHg 67%
07:00 +22°C° 0 mm 1 m/S 752 mmHg 62%
08:00 +23°C° 0 mm 1 m/S 752 mmHg 57%
09:00 +25°C° 0 mm 1 m/S 752 mmHg 53%
10:00 +27°C° 0 mm 1 m/S 752 mmHg 48%
11:00 +27°C° 0 mm 1 m/S 752 mmHg 46%
12:00 +28°C° 0 mm 1 m/S 752 mmHg 44%
13:00 +29°C° 0 mm 1 m/S 751 mmHg 42%
14:00 +28°C° 0 mm 1 m/S 751 mmHg 43%
15:00 +28°C° 0 mm 1 m/S 751 mmHg 44%
16:00 +28°C° 0 mm 2 m/S 750 mmHg 45%
17:00 +26°C° 0 mm 1 m/S 750 mmHg 52%
18:00 +24°C° 0 mm 1 m/S 750 mmHg 58%
19:00 +22°C° 0 mm 1 m/S 750 mmHg 65%
20:00 +21°C° 0 mm 1 m/S 750 mmHg 67%
21:00 +20°C° 0 mm 1 m/S 750 mmHg 68%
22:00 +20°C° 0 mm 1 m/S 750 mmHg 70%
23:00 +19°C° 0 mm 1 m/S 750 mmHg 72%

übermorgen, 17 August, Montag

Zeit Temperatur Niederschläge Wind Luftdruck Luftfeuchtigkeit
00:00 +19°C° 0 mm 1 m/S 750 mmHg 74%
01:00 +18°C° 0 mm 1 m/S 750 mmHg 76%
02:00 +18°C° 0 mm 1 m/S 750 mmHg 77%
03:00 +16°C° 0 mm 1 m/S 750 mmHg 78%
04:00 +16°C° 0 mm 1 m/S 749 mmHg 79%
05:00 +19°C° 0 mm 1 m/S 749 mmHg 74%
06:00 +19°C° 0 mm 2 m/S 749 mmHg 70%
07:00 +20°C° 0 mm 2 m/S 749 mmHg 65%
08:00 +23°C° 0 mm 2 m/S 749 mmHg 59%
09:00 +25°C° 0 mm 3 m/S 749 mmHg 53%
10:00 +26°C° 0 mm 3 m/S 749 mmHg 47%
11:00 +26°C° 0 mm 3 m/S 749 mmHg 47%
12:00 +27°C° 0 mm 3 m/S 748 mmHg 47%
13:00 +27°C° 0 mm 3 m/S 748 mmHg 48%
14:00 +27°C° 0 mm 3 m/S 748 mmHg 50%
15:00 +26°C° 0 mm 2 m/S 747 mmHg 52%
16:00 +26°C° 0 mm 2 m/S 747 mmHg 54%
17:00 +25°C° 0.1 mm 2 m/S 747 mmHg 57%
18:00 +23°C° 0.1 mm 2 m/S 747 mmHg 60%
19:00 +21°C° 0.1 mm 2 m/S 746 mmHg 63%
20:00 +21°C° 0.4 mm 2 m/S 746 mmHg 65%
21:00 +20°C° 0.4 mm 3 m/S 746 mmHg 68%
22:00 +19°C° 0.4 mm 3 m/S 746 mmHg 70%
23:00 +19°C° 0.1 mm 2 m/S 746 mmHg 71%

18 August, Dienstag

Zeit Temperatur Niederschläge Wind Luftdruck Luftfeuchtigkeit
00:00 +18°C° 0.1 mm 2 m/S 746 mmHg 72%
01:00 +18°C° 0.1 mm 2 m/S 745 mmHg 73%
02:00 +17°C° 0 mm 2 m/S 745 mmHg 77%
03:00 +17°C° 0 mm 2 m/S 745 mmHg 82%
04:00 +16°C° 0 mm 2 m/S 744 mmHg 86%
05:00 +17°C° 0 mm 2 m/S 744 mmHg 83%
06:00 +19°C° 0 mm 2 m/S 744 mmHg 80%
07:00 +20°C° 0 mm 3 m/S 744 mmHg 77%
08:00 +21°C° 0 mm 3 m/S 744 mmHg 72%
09:00 +24°C° 0 mm 2 m/S 744 mmHg 68%
10:00 +25°C° 0 mm 2 m/S 744 mmHg 64%
11:00 +26°C° 0 mm 2 m/S 744 mmHg 62%
12:00 +27°C° 0 mm 2 m/S 743 mmHg 59%
13:00 +28°C° 0 mm 2 m/S 743 mmHg 57%
14:00 +27°C° 0.1 mm 2 m/S 743 mmHg 59%
15:00 +27°C° 0.1 mm 2 m/S 742 mmHg 61%
16:00 +27°C° 0.1 mm 2 m/S 742 mmHg 63%
17:00 +25°C° 0.1 mm 2 m/S 742 mmHg 70%
18:00 +23°C° 0.1 mm 2 m/S 742 mmHg 78%
19:00 +21°C° 0.1 mm 2 m/S 742 mmHg 85%
20:00 +20°C° 0 mm 2 m/S 742 mmHg 88%
21:00 +19°C° 0 mm 2 m/S 742 mmHg 91%
22:00 +19°C° 0 mm 1 m/S 742 mmHg 93%
23:00 +19°C° 0 mm 1 m/S 742 mmHg 94%

19 August, Mittwoch

Zeit Temperatur Niederschläge Wind Luftdruck Luftfeuchtigkeit
00:00 +18°C° 0 mm 1 m/S 742 mmHg 95%
01:00 +18°C° 0 mm 1 m/S 742 mmHg 95%
02:00 +18°C° 0 mm 1 m/S 741 mmHg 95%
03:00 +18°C° 0 mm 1 m/S 741 mmHg 96%
04:00 +16°C° 0 mm 1 m/S 741 mmHg 96%
05:00 +18°C° 0 mm 1 m/S 741 mmHg 92%
06:00 +19°C° 0 mm 1 m/S 741 mmHg 87%
07:00 +20°C° 0 mm 1 m/S 742 mmHg 83%
08:00 +22°C° 0 mm 1 m/S 742 mmHg 77%
09:00 +23°C° 0 mm 1 m/S 742 mmHg 71%
10:00 +25°C° 0 mm 1 m/S 742 mmHg 64%
11:00 +25°C° 0 mm 2 m/S 742 mmHg 64%
12:00 +25°C° 0 mm 2 m/S 742 mmHg 63%
13:00 +25°C° 0 mm 2 m/S 742 mmHg 63%
14:00 +25°C° 0.2 mm 3 m/S 742 mmHg 66%
15:00 +24°C° 0.2 mm 3 m/S 742 mmHg 69%
16:00 +24°C° 0.2 mm 3 m/S 742 mmHg 72%
17:00 +21°C° 0.3 mm 3 m/S 742 mmHg 77%
18:00 +20°C° 0.3 mm 3 m/S 742 mmHg 82%
19:00 +18°C° 0.3 mm 3 m/S 742 mmHg 87%
20:00 +18°C° 0.1 mm 3 m/S 742 mmHg 87%
21:00 +18°C° 0.1 mm 3 m/S 742 mmHg 87%
22:00 +18°C° 0.1 mm 3 m/S 742 mmHg 88%
23:00 +18°C° 0.1 mm 3 m/S 742 mmHg 89%

20 August, Donnerstag

Zeit Temperatur Niederschläge Wind Luftdruck Luftfeuchtigkeit
00:00 +17°C° 0.1 mm 2 m/S 742 mmHg 90%
01:00 +17°C° 0.1 mm 2 m/S 742 mmHg 91%
02:00 +17°C° 0 mm 2 m/S 742 mmHg 92%
03:00 +17°C° 0 mm 2 m/S 743 mmHg 92%
04:00 +17°C° 0 mm 2 m/S 743 mmHg 93%
05:00 +18°C° 0 mm 2 m/S 743 mmHg 91%
06:00 +18°C° 0 mm 3 m/S 743 mmHg 90%
07:00 +19°C° 0 mm 3 m/S 743 mmHg 89%
08:00 +20°C° 0.1 mm 3 m/S 744 mmHg 82%
09:00 +21°C° 0.1 mm 3 m/S 744 mmHg 75%
10:00 +24°C° 0.1 mm 3 m/S 745 mmHg 69%
11:00 +23°C° 0.4 mm 4 m/S 745 mmHg 67%
12:00 +25°C° 0.4 mm 4 m/S 745 mmHg 65%
13:00 +26°C° 0.4 mm 4 m/S 745 mmHg 62%
14:00 +26°C° 0.2 mm 4 m/S 745 mmHg 62%
15:00 +26°C° 0.2 mm 4 m/S 745 mmHg 61%
16:00 +26°C° 0.2 mm 3 m/S 745 mmHg 61%
17:00 +24°C° 0 mm 3 m/S 746 mmHg 67%
18:00 +21°C° 0 mm 2 m/S 746 mmHg 73%
19:00 +21°C° 0 mm 1 m/S 746 mmHg 79%
20:00 +20°C° 0 mm 1 m/S 746 mmHg 82%
21:00 +19°C° 0 mm 1 m/S 747 mmHg 84%
22:00 +16°C° 0 mm 0 m/S 747 mmHg 87%
23:00 +18°C° 0 mm 1 m/S 747 mmHg 87%
Mehr zeigen